This is the latest recevied weather packets stored in our database for station/object KJ6LNH-1. If no packets are shown the sender has not sent any weather packets the latest 10 day(s).
| Time | Temp. | Humidity | Pressure | Rain* | Wind** | Luminosity | Snow |
|---|---|---|---|---|---|---|---|
| 1787727905 | 17.78° C | 66% | 1014.1 hPa | 0 mm | - | - | - |
| 1787727607 | 17.78° C | 66% | 1014.1 hPa | 0 mm | - | - | - |
| 1787727306 | 17.78° C | 66% | 1014.1 hPa | 0 mm | - | - | - |
| 1787727005 | 18.33° C | 66% | 1014.1 hPa | 0 mm | - | - | - |
| 1787726705 | 18.33° C | 65% | 1014.2 hPa | 0 mm | - | - | - |
| 1787726406 | 18.33° C | 65% | 1014.1 hPa | 0 mm | - | - | - |
| 1787726106 | 18.33° C | 65% | 1014.1 hPa | 0 mm | - | - | - |
| 1787725806 | 18.89° C | 65% | 1014.2 hPa | 0 mm | - | - | - |
| 1787725506 | 18.89° C | 65% | 1014.2 hPa | 0 mm | - | - | - |
| 1787725205 | 18.89° C | 65% | 1014.2 hPa | 0 mm | - | - | - |
| 1787724906 | 18.33° C | 65% | 1014.2 hPa | 0 mm | - | - | - |
| 1787724605 | 18.33° C | 68% | 1014.1 hPa | 0 mm | - | - | - |
| 1787724306 | 18.33° C | 72% | 1014.1 hPa | 0 mm | - | - | - |
| 1787724006 | 18.33° C | 73% | 1014.1 hPa | 0 mm | - | - | - |
| 1787723407 | 17.78° C | 74% | 1014.2 hPa | 0 mm | - | - | - |
| 1787723106 | 18.33° C | 73% | 1014.2 hPa | 0 mm | - | - | - |
| 1787722805 | 18.33° C | 73% | 1014.1 hPa | 0 mm | - | - | - |
| 1787722508 | 18.89° C | 70% | 1014.2 hPa | 0 mm | - | - | - |
| 1787722206 | 18.89° C | 68% | 1014.2 hPa | 0 mm | - | - | - |
| 1787721905 | 18.89° C | 68% | 1014.2 hPa | 0 mm | - | - | - |
| 1787721606 | 19.44° C | 68% | 1014.2 hPa | 0 mm | - | - | - |
| 1787721006 | 20° C | 65% | 1014.2 hPa | 0 mm | - | - | - |
| 1787720705 | 20° C | 62% | 1014.2 hPa | 0 mm | - | - | - |
| 1787720406 | 20° C | 62% | 1014.2 hPa | 0 mm | - | - | - |
| 1787720106 | 20° C | 62% | 1014.2 hPa | 0 mm | - | - | - |
* Rain latest hour (hover to see other rain measurements)
** Current wind speed in m/s (hover to see current wind gust speed)